Hourly Data Report for March 17, 2001

SHERBROOKE A
QUEBEC

45°26'00.000" N
71°41'00.000" W
241.40 m
7028124
71610
YSC

Download Data

Hourly Data (March 2001)
Hourly Data Report for March 17, 2001
TIME
LST
Temp Definition
°C
Dew Point Definition
°C
Rel Hum Definition
%
Precip. Amount Definition
mm

Wind Dir Definition
10's deg

Wind Spd Definition
km/h
Visibility Definition
km
Stn Press Definition
kPa
Hmdx Definition


Wind Chill Definition


Weather Definition


00:00 -14.4 -16.6 83   10 4 15.0 98.72   -17  
01:00 -14.2 -16.9 80     0 15.0 98.72      
02:00 -14.7 -17.5 79   10 4 15.0 98.65   -18  
03:00 -17.0 -19.9 78   11 4 15.0 98.65   -20  
04:00 -15.7 -18.1 82   19 4 8.0 98.69   -19  
05:00 -13.4 -15.9 81   22 7 12.9 98.75   -18  
06:00 -14.0 -16.5 81     0 12.9 98.82      
07:00 -13.4 -16.0 81   24 6 15.0 98.82   -17  
08:00 -10.6 -13.6 79   26 7 24.1 98.85   -15 Mainly Clear
09:00 -8.3 -13.6 66   30 6 24.1 98.82   -12 Mainly Clear
10:00 -7.0 -12.8 63   26 13 24.1 98.82   -13 Mainly Clear
11:00 -5.6 -12.1 60   26 9 24.1 98.79   -10 Mainly Clear
12:00 -3.8 -11.1 57   28 9 24.1 98.72   -8 Mainly Clear
13:00 -2.8 -10.6 55   28 9 24.1 98.69   -6 Mainly Clear
14:00 -1.8 -10.2 53   27 9 24.1 98.62   -5 Mainly Clear
15:00 -1.2 -10.1 51   26 15 24.1 98.59   -6 Mainly Clear
16:00 -1.2 -9.7 52   28 9 24.1 98.55   -4 Mainly Clear
17:00 -1.7 -10.2 52   26 15 24.1 98.52   -7 Mainly Clear
18:00 -4.1 -11.5 56   26 11 15.0 98.52   -9  
19:00 -5.2 -11.7 60   26 9 15.0 98.59   -9  
20:00 -6.8 -12.5 64   26 4 15.0 98.62   -9  
21:00 -6.8 -11.9 67   25 4 15.0 98.59   -9  
22:00 -8.7 -13.3 69   13 4 15.0 98.59   -11  
23:00 -8.6 -12.6 73   13 6 15.0 98.55   -12  

Notes on Data Quality.

Legend

  • E = Estimated
  • M = Missing
  • NA = Not Available*
  • [empty] = Indicates an unobserved value
Date modified: